[Date Prev][Date Next][Thread Prev][Thread Next][Date Index][Thread Index]

[jamsat-news:1526] jas2info #232



========================   最新情報   ==============================

        Last updated :Sat.30JUN2001  16:20(JST)   #232
        
====================================================================
   
  1)アマチュア通信衛星情報、FOシリーズの軌道要素、テレメトリ、QSOの
   状況等をまとめてみました.
   
   FO−29の2001年6月30日(土)の9:57(JST)のパスでは
  JARLのホームページのとうりアナログ運用でした。 今週の観測した
  テレメトリーと最終の分析結果を掲載しておきます.

AS24039C1  30JUN2001
9:06-9:09(JST)
FREQ.435.787-.786MHz

HI HI AE C7 88 55 00 D4 00 00 09 00 92 AC 83 63 99 96 B0 81 A6 A1 A5 A7 A3
HI HI AE C7 88 55 00 D4 00 00 09 00 98 A8 82 63 99 96 B0 7D A6 A1 A5 A7 A4 
HI HI AE C7 88 55 00 D4 00 00 09 00 9E A3 81 63 99 96 B0 78 A6 A1 A5 A7 A4 
HI HI AE C7 88 55 00 D4 00 00 09 00 A3 9D 81 63 98 96 B0 6C A6 A1 A4 A7 A4 
HI HI AE C7 88 55 00 D4 00 00 09 00 A8 96 83 63 99 96 B0 75 A6 A1 A4 A7 A4 
  
AS24004C   27JUN2001
19:35-19:37(JST)
FREQ.435.788MHz

HI HI AE C7 88 55 00 D4 F3 A1 09 64 75 51 4A 64 98 96 AD 91 A0 9E A4 A3 A2 
HI HI AE C7 88 55 00 D4 F3 A1 09 64 7E 52 4A 64 98 96 AB 70 A0 9E A4 A3 A2 
HI HI AE C7 88 55 00 D4 F3 A1 09 64 7D 53 4A 64 97 96 AB 80 A0 9E A4 A3 A2

AS23999C   27JUN2001
9:56-10:07(JST)
FREQ.435.801-.789MHz

HI HI AE C7 88 55 00 D4 5F B4 09 5A 6E 91 6F 62 98 96 B0 53 A7 A5 A6 A6 A3 
HI HI AE C7 88 55 00 D4 5F B4 09 5A 71 7E 7D 6A 98 96 B0 71 A7 A5 A6 A6 A3 
HI HI AE C7 88 55 00 D4 5F B4 09 5A 81 92 62 9O 98 96 B0 7A A7 A5 A6 A6 A3 
HI HI AE C7 88 55 00 D4 5F B4 09 5A 8F 94 62 97 94 96 B0 7D A7 A5 A6 A6 A3 
HI HI AE C7 55 06 00 D4 5F B4 09 5A 92 96 62 98 95 96 BO 7E A6 A5 A6 A6 A3 
HI HI AE C7 88 55 00 D4 5F B4 09 5A 94 9F 62 98 96 96 B0 6A A6 A4 A6 A6 A3 
HI HI AE C7 88 55 00 D4 5F B4 09 5A 96 9D 6D 62 98 96 B0 85 A6 A4 A6 A5 A3 
HI HI AE C7 88 55 00 D4 5F B4 09 5A 9B 9A 66 62 98 96 B0 74 A6 A4 A5 A5 A3 
HI HI AE C7 88 55 00 D4 5F B4 09 5A 9F 97 66 63 98 96 B0 7E A6 A4 A5 A5 A3 
HI HI AE C7 88 55 00 D4 5F B4 09 5A A0 92 64 62 97 96 B0 81 A6 A4 A5 A5 A3 
HI HI AE C7 88 55 00 D4 5F B4 09 5A A0 8C 62 62 97 96 B0 61 A5 A4 A5 A5 A3 
HI HI AE C7 88 55 00 D4 5F B4 09 5A 9E 86 65 62 98 96 B0 8A A5 A4 A5 A5 A3
HI HI AE C7 88 55 00 D4 5F B4 09 5A 9A 80 67 62 98 96 B0 99 A5 A4 A5 A5 A3 
HI HI AE C7 88 55 00 D4 5F B4 09 5A 95 7A 6A 62 98 96 B0 80 A5 A4 A5 A5 A3 
HI HI AE C7 88 55 00 D4 5F B4 09 5A 8E 76 67 62 98 96 B0 8F A5 A4 A5 A5 A3 
HI HI AE C7 88 55 00 D4 5F B4 09 5A 8B 72 6E 62 98 96 B0 8A A5 A4 A5 A5 A3 

AS23991C  26JUN2001
20:16-20:35(JST)
FREQ.435.803-.787MHz

HI HI AE C7 88 55 O0 D4 7B 5D 09 5F 7C A4 71 63 96 96 B0 7F A4 A0 A4 A4 A3 
HI HI AE C7 88 55 00 D4 7B 5D 09 5F 7A 9C 6A 63 98 96 B0 68 A4 A0 A4 A4 A3 
HI HI AE C7 88 55 00 D4 7B 5D 09 5F 76 92 68 62 99 96 B0 4A A3 A0 A4 A4 A3 
HI HI AE C7 88 55 00 D4 7B 5D 09 5F 71 88 6B 62 98 96 B0 71 A3 A0 A3 A3 A3 
HI HI AE C7 88 55 00 D4 7B 5D 09 5F 6B 7C 6D 62 99 96 B0 60 A3 A0 A3 A3 A3 
HI HI AE C7 88 55 00 D4 7B 5D 09 5F 64 72 6C 62 98 96 B0 78 A3 A0 A3 A3 A3 
HI HI AE C7 88 55 09 D4 7B 5D 0G 5F 5D 67 67 62 99 96 B0 6D A3 A0 A3 A3 A3 
HI HI AE C7 88 55 00 D4 7B 5D 09 5F 56 5D 64 62 99 96 B0 85 A3 A0 A3 A3 A3 
HI HI AE C7 88 55 00 D4 7B 5D 09 5F 50 55 5D 62 98 96 B0 5B A3 A0 A3 A3 A3 
HI HI AE C7 88 55 00 D4 7B 5D 09 5F 4C 4E 57 62 98 96 B0 71 A3 A0 A3 A3 A3 
HI HI AE C7 88 55 00 D4 7B 5D 09 5F 49 48 50 62 98 96 B0 96 I3 A0 A3 A3 A3 
HI HI AE C7 88 55 00 D4 7B 5D 09 5F 48 4V 51 63 98 96 B0 6D A2 A0 A3 A3 A3 
HI HI AE C7 88 55 00 D4 7B 5D 09 5F 49 43 51 63 98 96 B0 5C A2 A0 A3 A3 A3 
HI HI AE C7 88 55 00 D4 7B 5D 09 5F 4C 42 52 63 99 96 B0 7A A2 A0 A3 A3 A3 
HI HI AE C7 88 55 00 D4 7B 5D 09 5F 51 43 4E 63 99 96 B0 79 A2 A0 A3 A3 A3 
HI HI AE C7 88 55 00 D4 7B 5D 09 5F 58 45 51 63 99 96 B0 73 A2 9F A3 A3 A3 
HI HI AE C7 88 55 00 D4 7B 5D 09 5F 59 48 51 63 99 96 B0 8C A2 9F A3 A3 A3 
HI HI AE C7 88 55 00 D4 7B 5D 09 5F 66 4A 52 63 98 96 B0 6A A2 A0 A3 A3 A3 
HI HI AE C7 88 55 00 D4 7B 5D 09 5F 6D 4C 57 63 99 97 B0 75 A2 9F A3 A3 A3 
HI HI AE C7 88 55 00 D4 7B 5D 09 5F 73 4D 59 63 99 97 B0 6F A2 9F A3 A3 A3 
HI HI AE C7 88 55 00 D4 ^B 5D 09 5F 77 4D 62 63 99 87 B0 69 A2 9F A3 A3 A3 
HI HI AE C7 88 55 00 D4 7B 5D 09 5F 7A 4C 62 63 99 97 B0 81 A2 9F A3 A3 A3 
HI HI AE C7 88 55 00 D4 7B 5D 09 5F 7B 4A 61 63 99 97 B0 7D A2 9F A3 A3 A3 
HI HI AE C7 88 55 00 D4 7B 5D 09 5F 7B 48 5F 63 99 97 B0 75 A3 9F A3 A3 A3 
HI HI AE C7 88 55 00 D4 7B 5D 09 5F 79 46 68 63 99 97 B0 77 A3 9F A3 A3 A3 
HI HI AE C7 88 55 00 D4 7B 5D 0  5F 76       63 99 97 B0 78 A3 9F A3 A3 A3 
HI HI AE C7 88 55 00 D4 7B 5D 09 5F 76 

AS23977C  25JUN2001
19:37-19:42(JST)
FREQ.435.788MHz

HI HI AE C7 88 55 00 D4 7B 60 09 5D 66 47 62 63 99 97 B0 72 A2 9F A1 A1 A2 
HI HI AE C7 88 55 00 D4 7B 60 08 5D 63 43 59 62 99 97 B0 7F A2 9F A1 A1 A2 
HI HI AE C7 88 55 00 D4 7B 60 09 5D 60 40 54 63 99 97 B0 67 A2 9F A1 A2 A2 
HI HI AE C7 88 55 00 D4 7B 60 09 5D 61 3F 51 63 99 97 B0 70 A2 9F A1 A2 A2 
HI HI AE C7 88 55 00 D4 7B 60 09 5D 63 3E 57 62 99 97 B0 7D A2 9F A1 A1 A2 
HI HI AE C7 88 55 00 D4 7B 60 09 5D 6

 ------------------------ FO-29の軌道要素 ------------------------------        
 
  ■ 軌道要素1:「jamsat−keps:1014」より         
          SB KEPS @ AMSAT  $ORB01179.N
          2Line Orbital Elements 01179.AMSAT

HR AMSAT ORBITAL ELEMENTS FOR AMATEUR SATELLITES IN NASA FORMAT
FROM WA5QGD FORT WORTH,TX June 28, 2001
SEND SUBSCRIBE/UNSUBSCRIBE TO majordomo@amsat.org ONLY
BID: ORB01179.N

 DECODE 2-LINE ELSETS WITH THE FOLLOWING KEY:
 1 AAAAAU 00  0  0 BBBBB.BBBBBBBB  .CCCCCCCC  00000-0  00000-0 0  DDDZ
 2 AAAAA EEE.EEEE FFF.FFFF GGGGGGG HHH.HHHH III.IIII JJ.JJJJJJJJKKKKKZ
 KEY: A-CATALOGNUM B-EPOCHTIME C-DECAY D-ELSETNUM E-INCLINATION F-RAAN
 G-ECCENTRICITY H-ARGPERIGEE I-MNANOM J-MNMOTION K-ORBITNUM Z-CHECKSUM

FO-29
1 24278U 96046B   01178.70197151  .00000016  00000-0  54711-4 0  4248
2 24278  98.5371  42.4912 0350803 334.7521  23.6824 13.52776267240067

 ■ 軌道要素2:「jamsat−keps:1015」より
        SB KEPS @ AMSAT  $ORB01179.O
        Orbital Elements  01179.OSCAR

HR AMSAT ORBITAL ELEMENTS FOR OSCAR SATELLITES
FROM WA5QGD FORT WORTH,TX June 28, 2001
SEND SUBSCRIBE/UNSUBSCRIBE TO majordomo@amsat.org ONLY
BID: ORB01179.O
TO ALL RADIO AMATEURS BT
 
Satellite: FO-29
Catalog number: 24278
Epoch time:      01178.70197151
Element set:     424
Inclination:       98.5371 deg
RA of node:        42.4912 deg
Eccentricity:    0.0350803
Arg of perigee:   334.7521 deg
Mean anomaly:      23.6824 deg
Mean motion:   13.52776267 rev/day
Decay rate:        1.6e-07 rev/day^2
Epoch rev:           24006
Checksum:              292
-------------------  FO-29(JAS-2)のテレメトリに関する情報  ---------------------- 
 
2)上記6月30日(土)のテレメトリの最終行を分析しておきます.

AS24039C1  30JUN2001
9:06-9:09(JST)
FREQ.435.787-.786MHz

HI HI AE C7 88 55 00 D4 00 00 09 00 A8 96 83 63 99 96 B0 75 A6 A1 A4 A7 A4 

テレメトリ   内 容       換算算値 単 位  
3C	磁気センサーZ軸=	82352.9	[nT]
3D	磁気センサX軸	=	73529.4	[nT]
4A	太陽電池発生電流=	 1284.3	[mA]
4B	B充放電電流	=	  -59.6	[mA]
4C	B端子電圧	=	   16.5	[V]
4D	B中間端子電圧	=	    7.2	[V]
5A	バス電圧	=	   17.3	[V]
5B	JTA送信電力	=	  662.4	[mW]
5C 	構体温度1	=	   17.4	[℃]
5D	構体温度2	=	   19.4	[℃]
6A	構体温度3	=	   18.2	[℃]
6B	構体温度4	=	   17.0	[℃]
6C	Bセル温度	=	   18.2	[℃]
   	
 ========================== FO-29(ふじ3号)のQSO情報等 ======================
   
 3)[jamsat-bb:

 ===============================================================================
   4)JARL のホームページに運用予定が記載されていましたのでご紹介します.
       ( http://www.jarl.or.jp/Japanese/3_Fuji/new/uy.htm )

        ■ ふじ3号/FOー29/JAS-2 ■  
   
     *** 運用予定について ***

     4月2日 〜 7月2日 アナログ系運用

  *なお,運用予定は都合により変更することがありますので予めご了承願います。

 照会先 : lab@jarl.or.jp

 最新の情報はテレホンサービス(03−3942−1000)をお聞きください。  
 以後の運用につきましては平成13年7月上旬にお知らせ致します。    
    
-----------------------    FO−20(JAS-1b)道要素   -------------------------
  5)
  ■ 軌道要素1 :出典はFO-29「ふじ3号」に同じ.
  
FO-20
1 20480U 90013C   01178.69467090  .00000040  00000-0  17205-3 0  3227
2 20480  99.0547 245.1484 0539719 285.4442  68.7705 12.83294367533448
 
  ■ 軌道要素2 :出典はFO−29「ふじ3号」に同じ.
               
Satellite: FO-20
Catalog number: 20480
Epoch time:      01178.69467090
Element set:     322
Inclination:       99.0547 deg
RA of node:       245.1484 deg
Eccentricity:    0.0539719
Arg of perigee:   285.4442 deg
Mean anomaly:      68.7705 deg
Mean motion:   12.83294367 rev/day
Decay rate:        4.0e-07 rev/day^2
Epoch rev:           53344
Checksum:              318
 --------------------------------------------------------------------------------
 
         ■ ふじ2号/FO−20/JAS-1b ■      
            
          「ふじ2号」 現況                                                                                  
             
   JAS-1b(ふじ2号)のCWテレメトリ信号に,1997年10月12日12時(JST)の
 日本上空通過時,3桁の数字が繰り返されるはずが3個の長音の繰り返しとなっているという
 異常が発見されました。この不具合は次の通過時からは回復していましたが13日15時20分の
 通過時に再び観測されました。現在はA0の送信が続いています。衛星のアナログ系中継モード
 動作は異常が無く,正常時のテレメトリ内容からは衛星の動作に異常は認められません。従って,
 直ちに衛星のミッションに影響することは無いと予想されますので,当面はアナログ系中継
 モードを継続します。衛星は既に打ち上げてから7年8ヶ月を経ておりますので,今後は監視を
 強化する予定です。アマチュア各位のレポートをお待ちします。
 -------------------------------------------------------------------------------- 
  1997年10月14日 00時35分 確認のテレメトリ音 151 KB (A0) 
  1997年10月14日 11時10分 確認のテレメトリ音 216 KB (異常キーイング) 

  以上 JARLのホ−ムページの http://www.jarl.or.jp/Japanese/3_Fuji/new/fuji.htm

===================== FO-20 ふじ2号 のテレメトリ観測結果 ====================

   5月29日(金)の観測結果では以前観測した単一周波数のドップラー効果で
 周波数がずれていくのみの状態でした。
                                         
   =============   JAS-2 (ふじ3号)と現在までの情報   ===========
  
  A.電話によるふじ3号の運用情報
      社団法人日本アマチュア連盟によるサービス
           TEL .   03− 3942 − 1000
  B.アマチュア無線FAXサービス
      JARLによるふじ3号の軌道情報(オービットカレンダー)
         FAX No.  03− 3233 −0055
  C.WWWブラウザで情報を簡単に見れる人のためにJAS−2
     ふじ3号の衛星としての運用されるまでの名前)の概要、打ち上げ
     までの状況、運用中における状況を説明したホームページを紹介し
     ておきます.
     社団法人日本アマチュア無線連盟(JARL)のホームページ

          http://www.jarl.or.jp/Japanese/3_Fuji/jasmenu.htm
 
     宇宙開発事業団(NASDA)ホームページ 
          http://www.nasda.go.jp/
         打上げ衛星 :地球観測プラットフォーム技術衛星(ADEOS) 
                       アマチュア衛星3号(JAS-2)
          http://spaceboy.nasda.go.jp/note/eisei/j/Eis15h_j.html#Eis15h_01_j
     http://spaceboy.nasda.go.jp/note/eisei/j/Eis15i_j.html        

  D.JAMSATによる軌道情報の活用
        JAMSATのホームページまたはjamsat−kepsの軌道要素より
      衛星の軌道情報を得る.
     JAMSATホームページ
               URL    http://www.jamsat.or.jp
       上記ホームページでは各地で行われるアマチュア通信衛星に関する
      ミューティングのお知らせや世界のアマチュア衛星に関する情報が
      満載されています.
 ========================================================================  
     JAMSATのメンバーのご協力によりJH6MME(高山 秀造)が
    執筆・編集を担当しております.ご指摘の意見、疑問やこのようにしたら
    というアイデアがありましたら小さなことでもかまいませんので気軽に下
    記アドレスまでご連絡ください.jamsat−newsからjas2
    infoへの転載をJH4PHW局坂井さんに担当して頂いております.  
                  E-mail : jh6mme@jamsat.or.jp : jh4phw@jamsat.or.jp
 ===============================   END  ===============================